Hourly Weather Barkowo

Today, 18 April, Sunday

Time Temperature Precipitation Wind Pressure Humidity
00:00 +4°C° 0 mm 3 mps 762 mmHg 93%
01:00 +4°C° 0 mm 3 mps 762 mmHg 93%
02:00 +4°C° 0 mm 3 mps 762 mmHg 93%
03:00 +3°C° 0 mm 3 mps 762 mmHg 93%
04:00 +3°C° 0 mm 3 mps 762 mmHg 93%
05:00 +4°C° 0 mm 3 mps 762 mmHg 90%
06:00 +5°C° 0 mm 3 mps 762 mmHg 86%
07:00 +7°C° 0 mm 3 mps 762 mmHg 82%
08:00 +9°C° 0 mm 3 mps 762 mmHg 78%
09:00 +10°C° 0 mm 3 mps 762 mmHg 74%
10:00 +12°C° 0 mm 3 mps 762 mmHg 70%
11:00 +11°C° 0.6 mm 3 mps 762 mmHg 76%
12:00 +10°C° 0.6 mm 3 mps 762 mmHg 81%
13:00 +10°C° 0.6 mm 2 mps 762 mmHg 87%
14:00 +10°C° 0.9 mm 3 mps 761 mmHg 85%
15:00 +10°C° 0.9 mm 3 mps 761 mmHg 84%
16:00 +10°C° 0.9 mm 3 mps 761 mmHg 82%
17:00 +9°C° 0 mm 3 mps 761 mmHg 85%
18:00 +9°C° 0 mm 3 mps 762 mmHg 89%
19:00 +7°C° 0 mm 4 mps 762 mmHg 92%
20:00 +7°C° 0 mm 3 mps 762 mmHg 93%
21:00 +7°C° 0 mm 3 mps 762 mmHg 94%
22:00 +5°C° 0 mm 3 mps 762 mmHg 95%
23:00 +6°C° 0 mm 2 mps 762 mmHg 95%

Tomorrow, 19 April, Monday

Time Temperature Precipitation Wind Pressure Humidity
00:00 +6°C° 0 mm 2 mps 762 mmHg 95%
01:00 +6°C° 0 mm 2 mps 762 mmHg 94%
02:00 +6°C° 0 mm 2 mps 762 mmHg 94%
03:00 +7°C° 0 mm 2 mps 762 mmHg 93%
04:00 +7°C° 0 mm 2 mps 761 mmHg 93%
05:00 +7°C° 0 mm 2 mps 762 mmHg 91%
06:00 +8°C° 0 mm 2 mps 762 mmHg 90%
07:00 +8°C° 0 mm 2 mps 762 mmHg 88%
08:00 +9°C° 0 mm 2 mps 762 mmHg 85%
09:00 +10°C° 0 mm 2 mps 761 mmHg 81%
10:00 +12°C° 0 mm 2 mps 761 mmHg 78%
11:00 +12°C° 0.1 mm 3 mps 761 mmHg 74%
12:00 +14°C° 0.1 mm 3 mps 761 mmHg 70%
13:00 +15°C° 0.1 mm 4 mps 761 mmHg 65%
14:00 +14°C° 0.4 mm 4 mps 760 mmHg 67%
15:00 +14°C° 0.4 mm 4 mps 760 mmHg 68%
16:00 +13°C° 0.4 mm 5 mps 760 mmHg 69%
17:00 +12°C° 0.1 mm 5 mps 760 mmHg 72%
18:00 +10°C° 0.1 mm 5 mps 760 mmHg 75%
19:00 +8°C° 0.1 mm 5 mps 760 mmHg 78%
20:00 +8°C° 0 mm 5 mps 760 mmHg 82%
21:00 +7°C° 0 mm 4 mps 760 mmHg 85%
22:00 +6°C° 0 mm 4 mps 760 mmHg 88%
23:00 +8°C° 0 mm 3 mps 760 mmHg 87%

Day after tomorrow, 20 April, Tuesday

Time Temperature Precipitation Wind Pressure Humidity
00:00 +8°C° 0 mm 3 mps 759 mmHg 87%
01:00 +8°C° 0 mm 2 mps 759 mmHg 86%
02:00 +8°C° 0 mm 2 mps 759 mmHg 85%
03:00 +8°C° 0 mm 2 mps 759 mmHg 85%
04:00 +8°C° 0 mm 2 mps 759 mmHg 85%
05:00 +8°C° 0.1 mm 2 mps 759 mmHg 84%
06:00 +9°C° 0.1 mm 2 mps 759 mmHg 83%
07:00 +9°C° 0.1 mm 2 mps 759 mmHg 82%
08:00 +10°C° 0.2 mm 2 mps 758 mmHg 76%
09:00 +12°C° 0.2 mm 2 mps 758 mmHg 70%
10:00 +14°C° 0.2 mm 2 mps 758 mmHg 64%
11:00 +14°C° 0.2 mm 2 mps 758 mmHg 62%
12:00 +14°C° 0.2 mm 2 mps 758 mmHg 60%
13:00 +14°C° 0.2 mm 2 mps 758 mmHg 57%
14:00 +14°C° 0.1 mm 2 mps 757 mmHg 58%
15:00 +13°C° 0.1 mm 3 mps 757 mmHg 58%
16:00 +13°C° 0.1 mm 3 mps 757 mmHg 58%
17:00 +12°C° 0 mm 3 mps 757 mmHg 66%
18:00 +10°C° 0 mm 3 mps 757 mmHg 73%
19:00 +8°C° 0 mm 3 mps 757 mmHg 81%
20:00 +8°C° 0 mm 2 mps 757 mmHg 82%
21:00 +7°C° 0 mm 2 mps 757 mmHg 82%
22:00 +6°C° 0 mm 2 mps 757 mmHg 83%
23:00 +6°C° 0 mm 2 mps 757 mmHg 83%

21 April, Wednesday

Time Temperature Precipitation Wind Pressure Humidity
00:00 +5°C° 0 mm 2 mps 756 mmHg 83%
01:00 +5°C° 0 mm 2 mps 756 mmHg 83%
02:00 +5°C° 0 mm 2 mps 756 mmHg 83%
03:00 +4°C° 0 mm 2 mps 756 mmHg 84%
04:00 +4°C° 0 mm 2 mps 756 mmHg 84%
05:00 +5°C° 0 mm 2 mps 756 mmHg 80%
06:00 +6°C° 0 mm 2 mps 756 mmHg 76%
07:00 +8°C° 0 mm 3 mps 756 mmHg 72%
08:00 +9°C° 0 mm 3 mps 756 mmHg 68%
09:00 +10°C° 0 mm 3 mps 756 mmHg 63%
10:00 +12°C° 0 mm 4 mps 756 mmHg 59%
11:00 +12°C° 0.1 mm 4 mps 756 mmHg 59%
12:00 +12°C° 0.1 mm 5 mps 755 mmHg 60%
13:00 +12°C° 0.1 mm 5 mps 755 mmHg 60%
14:00 +9°C° 0.2 mm 5 mps 755 mmHg 67%
15:00 +8°C° 0.2 mm 5 mps 755 mmHg 73%
16:00 +7°C° 0.2 mm 5 mps 755 mmHg 79%
17:00 +6°C° 0 mm 5 mps 755 mmHg 76%
18:00 +6°C° 0 mm 5 mps 755 mmHg 72%
19:00 +5°C° 0 mm 4 mps 755 mmHg 68%
20:00 +3°C° 0 mm 5 mps 755 mmHg 69%
21:00 +3°C° 0 mm 5 mps 755 mmHg 70%
22:00 +2°C° 0 mm 6 mps 755 mmHg 71%
23:00 +2°C° 0 mm 6 mps 755 mmHg 73%

22 April, Thursday

Time Temperature Precipitation Wind Pressure Humidity
00:00 0°C° 0 mm 7 mps 755 mmHg 75%
01:00 0°C° 0 mm 7 mps 755 mmHg 77%
02:00 0°C° 0 mm 7 mps 755 mmHg 76%
03:00 0°C° 0 mm 7 mps 755 mmHg 76%
04:00 0°C° 0 mm 7 mps 755 mmHg 75%
05:00 0°C° 0 mm 7 mps 755 mmHg 79%
06:00 0°C° 0 mm 7 mps 755 mmHg 82%
07:00 0°C° 0 mm 7 mps 755 mmHg 86%
08:00 0°C° 0.3 mm 7 mps 755 mmHg 89%
09:00 +1°C° 0.3 mm 6 mps 755 mmHg 92%
10:00 +1°C° 0.3 mm 6 mps 755 mmHg 95%
11:00 +2°C° 0.4 mm 5 mps 756 mmHg 94%
12:00 +2°C° 0.4 mm 5 mps 756 mmHg 92%
13:00 +3°C° 0.4 mm 5 mps 756 mmHg 91%
14:00 +4°C° 0.3 mm 4 mps 756 mmHg 88%
15:00 +5°C° 0.3 mm 4 mps 757 mmHg 86%
16:00 +5°C° 0.3 mm 4 mps 757 mmHg 84%
17:00 +4°C° 0 mm 3 mps 758 mmHg 86%
18:00 +4°C° 0 mm 3 mps 759 mmHg 89%
19:00 +3°C° 0 mm 3 mps 759 mmHg 91%
20:00 +3°C° 0 mm 3 mps 760 mmHg 91%
21:00 +3°C° 0 mm 3 mps 761 mmHg 91%
22:00 +2°C° 0 mm 3 mps 761 mmHg 91%
23:00 +2°C° 0 mm 3 mps 762 mmHg 90%

23 April, Friday

Time Temperature Precipitation Wind Pressure Humidity
00:00 +3°C° 0 mm 3 mps 762 mmHg 89%
01:00 +3°C° 0 mm 3 mps 763 mmHg 88%
02:00 +3°C° 0 mm 3 mps 763 mmHg 89%
03:00 +3°C° 0 mm 4 mps 763 mmHg 89%
04:00 +1°C° 0 mm 4 mps 764 mmHg 89%
05:00 +3°C° 0 mm 4 mps 764 mmHg 88%
06:00 +2°C° 0 mm 5 mps 765 mmHg 87%
07:00 +3°C° 0 mm 5 mps 766 mmHg 87%
08:00 +3°C° 0.1 mm 5 mps 766 mmHg 82%
09:00 +4°C° 0.1 mm 6 mps 766 mmHg 77%
10:00 +4°C° 0.1 mm 6 mps 767 mmHg 73%
11:00 +5°C° 0 mm 6 mps 767 mmHg 71%
12:00 +5°C° 0 mm 7 mps 767 mmHg 69%
13:00 +5°C° 0 mm 7 mps 767 mmHg 66%
14:00 +4°C° 0 mm 7 mps 768 mmHg 67%
15:00 +4°C° 0 mm 7 mps 768 mmHg 67%
16:00 +4°C° 0 mm 7 mps 768 mmHg 68%
17:00 +3°C° 0 mm 7 mps 768 mmHg 69%
18:00 +3°C° 0 mm 6 mps 768 mmHg 71%
19:00 +2°C° 0 mm 6 mps 768 mmHg 73%
20:00 +2°C° 0 mm 6 mps 768 mmHg 73%
21:00 +1°C° 0 mm 5 mps 768 mmHg 73%
22:00 +1°C° 0 mm 5 mps 768 mmHg 74%
23:00 +1°C° 0 mm 5 mps 768 mmHg 76%
Show more